Location: Pcim
(49.7500°N, 19.9670°E)
Time: 03:40:06
(UTC+02:00)

NOAA 18 - Pass Details

Date: 27 April 2024
Orbit: 837 x 859 km, 98.9° (Epoch: 13 October)

Event Time Altitude Azimuth Distance (km) Brightness Sun altitude
Exits shadow 23:00:40 40° 198° (SSW) 1,255 5.7 -22.6°
Maximum altitude 23:02:32 60° 258° (WSW) 980 5.5 -22.7°
Drops below altitude 10° 23:08:02 10° 339° (NNW) 2,503 8.8 -23.1°
Sets 23:10:28 0° 343° (NNW) 3,442 9.8 -23.2°
